Tracking 33188 objects as of 10-Feb-2026
HD Live streaming from Space Station
objects crossing your sky now

LEMUR 2 FURIAUS

Track LEMUR 2 FURIAUS now!
10-day predictions
LEMUR 2 FURIAUS is classified as:


NORAD ID: 42840
Int'l Code: 2017-042R
Perigee: 493.2 km
Apogee: 503.7 km
Inclination: 97.4 °
Period: 94.4 minutes
Semi major axis: 6869 km
RCS: Unknown
Launch date: July 14, 2017
Source: United States (US)
Launch site: TYURATAM MISSILE AND SPACE COMPLEX (TTMTR)
Your satellite tracking list
Your tracking list is empty




NASA's NSSDC Master Catalog

Two Line Element Set (TLE):
1 42840U 17042R   26041.01822374  .00023592  00000-0  95042-3 0  9996
2 42840  97.3731 220.9528 0007593 151.6194 208.5459 15.24823956468791
Source of the keplerian elements: AFSPC